Location: Riverside Cemetery
(38.3047°N, 99.7773°W)
Time: 14:57:16
(UTC+00:00)

BREEZE-M DEB (TANK) - Pass Details

Date: 19 September 2020
Orbit: 315 x 16294 km, 49.4° (Epoch: 22 October)

Event Time Altitude Azimuth Distance (km) Brightness Sun altitude
Rises 01:32:15 0° 313° (NW) 2,210 6.5 -10.7°
Reaches altitude 10° 01:33:46 10° 326° (NW) 1,576 5.3 -11.0°
Maximum altitude 01:36:37 32° 34° (NE) 1,194 3.8 -11.6°
Enters shadow 01:41:32 15° 91° (E) 3,059 5.4 -12.5°
